FW3276 Weather Reports


time (UTC)temp
F
wind
direction
speed
knots
gust
knots
rain 1hr
in
rain 24hr
in
rain mn
in
humidity
%
barometer
mb
20260510021548 49 232 0.0 0.9 0.00 0.32 0.32 53 1010.0
20260510020046 50 232 0.0 3.5 0.00 0.32 0.32 54 1010.0
20260510014546 50 229 0.0 3.5 0.00 0.32 0.32 54 1010.0
20260510013046 50 230 2.6 5.2 0.00 0.32 0.32 55 1009.8
20260510011546 50 224 0.9 5.2 0.00 0.32 0.32 54 1009.7
20260510010045 50 244 0.9 3.5 0.00 0.32 0.32 54 1009.3
20260510004544 51 245 0.0 0.0 0.00 0.32 0.32 55 1009.3
20260510003056 51 245 0.0 0.9 0.00 0.32 0.32 55 1009.2
20260510001544 52 245 0.0 2.6 0.00 0.32 0.32 55 1009.1
20260510000043 53 245 0.0 1.7 0.00 0.32 0.32 54 1008.9
20260509234545 54 246 0.0 5.2 0.00 0.32 0.32 54 1008.9
20260509233042 54 224 0.0 7.0 0.00 0.32 0.32 54 1008.7
20260509231542 54 217 0.0 2.6 0.00 0.32 0.32 54 1008.5
20260509230048 55 184 0.0 4.3 0.00 0.32 0.32 53 1008.5
20260509224552 55 263 1.7 5.2 0.00 0.32 0.32 53 1008.6
20260509223046 56 262 2.6 7.8 0.00 0.32 0.32 52 1008.6
20260509221538 56 244 1.7 8.7 0.00 0.32 0.32 51 1008.7
20260509220134 55 190 1.7 4.3 0.00 0.32 0.32 52 1008.7
20260509214532 54 251 0.9 3.5 0.00 0.32 0.32 55 1008.7
20260509213030 54 251 0.0 3.5 0.00 0.32 0.32 53 1009.0
20260509211529 54 251 0.0 5.2 0.01 0.32 0.32 54 1009.0
20260509210027 54 230 0.9 4.3 0.01 0.32 0.32 55 1009.0
20260509204525 54 263 1.7 6.1 0.01 0.32 0.32 56 1009.2
20260509203031 53 252 0.0 2.6 0.01 0.32 0.32 59 1009.2
20260509201521 52 246 0.0 6.1 0.00 0.31 0.31 58 1009.4
20260509200020 53 227 0.0 1.7 0.01 0.31 0.31 59 1009.5
20260509194521 52 227 0.0 2.6 0.03 0.31 0.31 59 1009.5
20260509193017 52 227 0.0 3.5 0.05 0.31 0.31 59 1009.6
20260509191515 51 225 1.7 3.5 0.05 0.31 0.31 59 1010.0
20260509190014 51 273 0.9 2.6 0.05 0.30 0.30 58 1010.1
20260509184519 51 233 0.9 4.3 0.05 0.28 0.28 58 1010.5
20260509183010 51 240 0.0 3.5 0.06 0.26 0.26 58 1010.5
20260509181509 51 240 1.7 5.2 0.08 0.26 0.26 57 1010.6
20260509180008 51 286 1.7 7.0 0.09 0.26 0.25 57 1010.5
20260509174508 51 234 0.0 2.6 0.10 0.24 0.23 57 1010.7
20260509173008 51 219 1.7 4.3 0.10 0.21 0.20 57 1010.7
20260509171507 51 186 0.0 2.6 0.10 0.19 0.18 56 1010.7
20260509170007 51 223 0.9 6.1 0.08 0.16 0.15 54 1010.9
20260509164506 51 228 0.9 3.5 0.07 0.14 0.13 53 1010.7
20260509163005 51 235 0.0 2.6 0.05 0.11 0.10 53 1010.9
20260509161506 51 228 0.9 4.3 0.04 0.09 0.08 53 1010.9
20260509160006 51 223 0.0 6.1 0.03 0.08 0.07 54 1011.0
20260509154505 51 213 1.7 6.1 0.02 0.07 0.06 53 1011.0
20260509153003 51 211 2.6 5.2 0.01 0.06 0.05 53 1011.1
20260509151501 51 267 0.0 5.2 0.01 0.05 0.04 54 1011.2
20260509150100 51 239 0.0 1.7 0.02 0.05 0.04 53 1011.0
20260509144601 51 239 0.0 0.0 0.03 0.05 0.04 53 1010.8
20260509143108 51 239 0.0 0.9 0.03 0.05 0.04 55 1010.6
20260509141556 50 239 0.0 4.3 0.02 0.04 0.03 54 1010.9
20260509140052 51 192 2.6 5.2 0.01 0.03 0.02 54 1011.2
20260509134551 51 338 0.0 1.7 0.00 0.02 0.01 55 1011.1
20260509133103 51 338 0.0 1.7 0.00 0.02 0.01 52 1010.7
20260509131546 50 338 0.0 0.0 0.00 0.02 0.01 53 1010.5
20260509130048 50 338 0.0 0.0 0.00 0.02 0.01 52 1010.6
20260509124547 49 338 0.0 1.7 0.00 0.02 0.01 53 1010.7
20260509123041 49 333 0.0 0.9 0.00 0.02 0.01 59 1010.8
20260509121546 48 333 0.0 0.0 0.00 0.02 0.01 59 1010.9
20260509120036 48 333 0.0 0.0 0.00 0.02 0.01 60 1011.0
20260509114537 47 333 0.0 0.0 0.00 0.02 0.01 60 1010.8
20260509113030 47 333 0.0 0.0 0.01 0.02 0.01 59 1010.9
20260509111530 46 333 0.0 0.0 0.01 0.02 0.01 59 1010.9
20260509110027 46 333 0.0 0.0 0.01 0.02 0.01 59 1010.9
20260509104527 46 333 0.0 1.7 0.01 0.02 0.01 59 1011.0
20260509103024 46 333 0.0 1.7 0.00 0.01 0.00 59 1010.7
20260509101529 46 333 0.0 0.0 0.00 0.01 0.00 58 1010.6
20260509100022 46 333 0.0 0.0 0.00 0.01 0.00 58 1010.7
20260509094528 46 333 0.0 0.9 0.00 0.01 0.00 58 1010.6
20260509093019 46 333 0.0 0.0 0.00 0.01 0.00 57 1011.0
20260509091523 46 333 0.0 0.0 0.00 0.01 0.00 57 1010.9
20260509090017 46 333 0.0 0.0 0.00 0.01 0.00 56 1011.1
20260509084515 46 333 0.0 1.7 0.00 0.01 0.00 57 1011.2
20260509083015 46 333 0.0 0.0 0.00 0.01 0.00 56 1011.2
20260509081522 46 333 0.0 0.0 0.00 0.01 0.00 56 1011.6
20260509080011 46 333 0.0 0.0 0.00 0.01 0.00 56 1011.8
20260509074511 46 333 0.0 0.0 0.00 0.01 0.00 55 1011.8
20260509073025 46 333 0.0 0.0 0.00 0.01 0.00 54 1011.8
20260509071512 46 333 0.0 0.0 0.00 0.01 0.00 54 1011.9
20260509070017 46 333 0.0 0.0 0.00 0.01 0.00 53 1011.8
20260509064508 47 333 0.0 0.0 0.00 0.01 0.00 53 1011.7
20260509063016 47 333 0.0 0.0 0.00 0.01 0.00 53 1011.9
20260509061507 47 333 0.0 1.7 0.00 0.01 0.00 53 1011.9
20260509060006 47 333 0.0 0.0 0.00 0.04 0.00 54 1011.7
20260509054503 47 333 0.0 1.7 0.00 0.04 0.00 53 1011.8
20260509053007 47 333 0.0 0.9 0.00 0.04 0.00 53 1012.3
20260509051506 47 333 0.0 0.9 0.00 0.04 0.00 53 1012.9
20260509050001 46 333 0.0 0.0 0.00 0.04 0.00 52 1012.6
20260509044600 47 333 0.0 1.7 0.00 0.04 0.00 52 1012.6
20260509043058 47 333 1.7 2.6 0.00 0.04 0.00 51 1012.5
20260509041556 47 334 0.0 2.6 0.00 0.04 0.00 52 1011.9
20260509040054 47 334 0.0 0.0 0.00 0.04 0.00 52 1012.0
20260509034554 47 334 0.0 0.0 0.00 0.04 0.04 52 1012.2
20260509033054 47 334 0.0 0.0 0.00 0.04 0.04 52 1012.3
20260509031553 47 334 0.0 0.0 0.00 0.04 0.04 54 1012.5
20260509030055 47 334 0.0 0.0 0.00 0.04 0.04 54 1012.6
20260509024552 47 334 0.0 0.0 0.00 0.04 0.04 55 1012.4
20260509023052 47 334 0.0 0.0 0.00 0.04 0.04 56 1012.4